Location: Kellogg
(38.0159°N, 90.0546°W)
Time: 02:13:36
(UTC+00:00)

SR - Pass Details

Date: 16 September 2024
Orbit: 577 x 855 km, 66.7° (Epoch: 10 October)

Event Time Altitude Azimuth Distance (km) Brightness Sun altitude
Rises 19:05:24 0° 225° (SW) 2,820 ? 50.7°
Reaches altitude 10° 19:07:46 10° 232° (SW) 1,902 ? 50.5°
Maximum altitude 19:11:45 39° 303° (WNW) 867 ? 50.1°
Drops below altitude 10° 19:15:44 10° 13° (NNE) 1,899 ? 49.7°
Sets 19:18:05 0° 21° (NNE) 2,814 ? 49.4°
